Location: Lac Lasalle
(46.0398°N, 74.1576°W)
Time: 15:17:00
(UTC-05:00)

AO-73 - Pass Details

Date: 12 December 2019
Orbit: 582 x 664 km, 97.6° (Epoch: 28 January)

Event Time Altitude Azimuth Distance (km) Brightness Sun altitude
Rises 06:47:02 0° 8° (N) 2,865 ? -7.2°
Reaches altitude 10° 06:49:16 10° 4° (N) 1,946 ? -6.9°
Maximum altitude 06:53:22 54° 287° (WNW) 719 ? -6.2°
Drops below altitude 10° 06:57:23 10° 210° (SSW) 1,901 ? -5.6°
Sets 06:59:33 0° 206° (SSW) 2,793 ? -5.3°
